SCP
-0 -0 0 0 -0 0 0 0 0 0 0 0 -0 -0 -0 -0 -0 -0 0 0 0 -0 -0 -0 -0 -0 -0 -0 -0 -0 -0 -0 -0 -0 -0 -0 0 0 0 0 0 0 0
-0 -0 0 0 0 0 0 0 0 0 0 0 0 -0 -0 -0 -0 -0 -0 -0 -0 -0 -0 -0 -0 -0 -0 -0 -0 -0 -0 -0 -0 -0 -0 -0 0 0 0 0 0 0 0
-0 -0 0 0 0 0 0 0 0 0 0 0 0 -0 -0 -0 -0 -0 -0 -0 0 -0 -0 -0 -0 -0 -0 -0 -0 -0 -0 -0 -0 0 0 0 0 0 0 0 0 0 0
-0 -0 0 0 0 0 0 0 0 0 0 0 0 -0 -0 -0 0 0 -0 -0 -0 -0 -0 -0 -0 -0 -0 -0 -0 -0 -0 -0 -0 0 0 0 0 0 0 0 0 0 0
-0 -0 0 -0 -0 -0 0 0 0 -0 0 -0 0 0 0 -0 0 0 0 0 -0 0 0 -0 -0 -1 -0 -0 -0 -0 -0 -0 -0 -0 0 0 0 0 0 0 0 0 0
-0 0 -0 -0 -0 0 -0 0 0 -0 0 0 0 -0 0 -0 -0 -0 -0 0 0 -0 -0 0 -0 -0 -0 -0 -0 -0 -0 -0 -0 -0 -0 0 0 0 0 0 0 0 0
-0 -0 -0 -0 -0 0 0 -0 0 0 -0 -0 0 0 -0 -0 0 -0 -0 -0 -0 -0 -0 -0 -0 -0 0 -0 -0 -0 -0 -0 -0 -0 0 -0 0 0 0 0 0 0 0
0 0 0 -0 -0 0 0 0 0 0 -0 0 0 0 -0 0 -0 -0 -0 -0 -0 0 -0 -0 0 0 0 0 0 -0 -0 -0 -0 -0 -0 -0 -0 0 0 0 0 0 0
-0 -0 -0 -0 -0 -0 0 0 -0 0 0 0 0 0 0 0 0 0 -0 0 -0 -0 0 0 -0 0 -0 0 -0 -0 -0 -0 -0 -0 -0 -0 -0 -0 -0 0 0 0 0
0 -0 0 -0 0 -0 -0 -0 -0 0 0 0 0 0 0 0 0 0 -0 0 0 0 -0 0 -0 -0 -0 -0 -0 -0 -0 -0 -0 -0 -0 -0 -0 -0 0 0 0 0 0
0 0 0 0 0 0 0 0 0 -0 0 0 -0 0 0 0 0 0 0 -0 -0 -0 -0 -0 0 -0 -0 -0 -0 -0 -0 -0 -0 -0 -0 -0 -0 -0 0 0 0 0 0
0 0 0 0 0 0 0 0 0 0 -0 -0 -0 0 0 0 0 0 0 0 0 0 0 -0 -0 0 0 -0 -0 -0 -0 -0 -0 -0 0 -0 -0 -0 0 -0 -0 -0 -0
0 0 0 0 0 0 0 0 0 0 -0 0 0 -0 -0 -0 0 0 0 0 0 0 0 -0 -0 -0 0 0 -0 -0 -0 -0 -0 0 0 0 0 0 0 -0 0 0 0
0 0 -0 0 0 0 0 0 0 0 0 -0 0 -0 -0 0 0 0 0 0 0 0 0 0 0 0 0 0 0 -0 0 0 0 0 0 0 0 0 0 0 0 -0 -0
0 0 0 0 0 0 0 0 0 0 0 -0 0 0 0 0 0 0 0 0 0 0 0 0 0 0 0 0 0 0 0 -0 -0 0 0 0 0 0 0 0 0 0 -0
0 0 0 0 0 0 0 0 0 0 0 0 0 0 0 0 0 0 0 0 0 0 0 0 0 0 0 0 0 0 0 0 0 0 0 0 0 0 0 0 0 0 0
0 0 0 0 0 0 0 0 0 0 0 0 0 -0 -0 0 0 0 0 0 0 0 0 0 0 0 0 0 0 0 0 0 0 0 0 0 0 0 0 0 0 0 0
0 0 0 0 0 0 0 0 0 0 0 0 0 0 0 0 0 0 0 0 0 0 0 0 0 0 0 0 0 0 0 0 0 0 0 0 0 0 0 0 0 0 0
-0 -0 0 0 0 0 0 0 0 0 0 0 0 0 0 0 0 0 0 0 0 0 0 0 0 0 0 0 0 0 0 0 0 0 0 0 0 0 0 0 -0 -0 0
-0 0 0 0 0 0 0 0 0 0 0 0 0 0 0 0 0 0 0 0 0 0 0 0 0 0 0 0 0 0 0 0 0 0 0 0 0 0 0 0 0 -0 0
0 0 0 0 0 0 0 0 0 0 0 0 0 0 0 0 0 0 0 0 0 0 0 0 0 0 0 0 0 0 0 0 0 0 0 0 0 0 0 0 0 0 0
-0 0 -0 0 0 0 0 0 0 0 0 0 0 0 0 0 0 0 0 0 0 0 0 0 0 0 0 0 0 0 0 0 0 0 0 0 0 0 0 0 0 0 0
0 0 0 0 0 0 0 0 0 0 0 0 0 0 0 0 0 0 0 0 0 0 0 0 0 0 0 0 0 0 0 0 0 0 0 0 0 0 0 0 0 0 0
0 0 0 0 0 0 0 0 0 0 0 0 0 0 0 0 0 0 0 0 0 0 0 0 0 0 0 0 0 0 0 0 0 0 0 0 0 0 0 0 0 0 0
1 0 0 0 0 0 0 0 0 0 0 0 0 0 0 0 0 0 0 0 0 0 0 0 0 0 0 0 0 0 0 0 0 0 0 0 0 0 0 0 0 0 0
0 0 0 0 0 0 0 0 0 0 0 0 0 0 0 0 0 0 0 0 0 0 0 0 0 0 0 0 0 0 0 0 0 0 0 0 0 0 0 0 0 0 0
Wind_Speed_500mb
6 7 6 6 7 10 11 9 7 11 14 13 24 29 28 22 26 20 18 15 13 12 15 20 23 26 28 27 27 28 28 30 30 31 30 31 32 32 30 29 28 27 26
8 4 5 6 5 2 4 9 9 12 13 17 24 30 36 30 28 24 22 20 12 13 14 19 23 27 28 27 27 28 27 28 32 35 35 33 30 33 31 31 31 29 27
4 3 3 4 6 2 3 10 8 6 10 17 17 27 42 26 32 29 24 22 16 10 9 11 16 22 24 24 24 25 26 28 29 30 34 37 36 34 34 35 32 30 29
8 4 6 11 8 7 0 6 6 2 9 16 14 24 32 30 25 25 24 22 20 18 12 12 14 17 20 21 20 20 19 21 24 27 31 33 35 36 36 37 36 32 31
12 9 6 7 10 9 4 5 7 8 9 12 17 18 27 36 32 25 25 26 21 20 20 16 16 19 22 20 17 14 14 17 20 23 26 30 32 35 38 37 36 35 35
12 12 6 3 9 6 3 4 8 5 6 7 18 17 23 19 34 34 28 29 33 28 21 23 23 23 22 19 16 14 13 16 17 20 23 26 29 30 32 34 37 34 32
12 11 7 9 7 8 2 1 1 2 4 8 14 22 23 22 25 40 32 22 25 26 22 23 32 23 22 18 17 12 14 13 18 22 25 25 27 29 31 32 32 37 37
14 11 12 9 6 3 3 6 6 6 5 6 14 25 22 22 23 34 38 29 28 29 22 22 26 23 25 17 11 14 16 19 21 25 22 19 24 26 28 32 33 31 32
16 14 10 12 9 8 8 6 7 9 10 7 15 13 14 13 30 33 33 34 29 31 29 26 23 22 24 26 26 20 19 19 23 25 20 16 17 19 21 25 28 32 31
20 16 13 13 12 8 7 11 9 8 7 8 13 17 15 12 13 13 32 36 29 31 30 28 26 26 24 26 28 25 23 25 25 26 20 15 15 17 19 19 21 27 32
22 19 19 16 16 11 11 8 12 17 14 13 6 2 14 14 16 9 20 33 28 33 31 32 33 35 31 24 23 20 24 25 24 24 19 14 14 12 13 14 16 23 28
28 24 24 22 21 19 17 13 12 13 15 14 15 6 3 4 2 14 17 22 27 26 33 33 31 30 35 29 29 23 24 24 25 21 17 13 13 12 13 18 17 17 23
35 30 27 22 23 22 17 18 15 13 19 14 16 14 11 10 11 11 17 20 25 28 28 33 32 28 27 29 31 30 28 29 22 18 14 12 10 10 12 17 18 13 15
23 26 25 22 22 22 20 19 21 16 15 13 12 13 14 13 15 14 10 16 16 23 22 31 33 34 29 28 32 37 35 27 18 15 12 10 9 10 10 12 12 14 17
23 23 23 25 23 15 18 24 21 18 18 16 16 15 16 17 17 23 15 16 18 13 13 27 31 28 33 33 37 36 35 27 20 13 13 10 10 10 10 11 13 16 21
31 29 21 21 20 12 13 18 15 16 20 17 17 18 20 22 21 19 24 18 22 24 20 11 28 32 24 32 36 37 29 30 25 17 14 13 13 13 12 13 14 16 18
34 33 28 29 27 23 19 20 20 20 28 23 26 28 24 22 23 23 26 28 25 22 25 29 24 33 34 25 25 28 32 27 27 24 20 16 15 16 15 17 18 19 19
44 38 33 34 34 34 29 27 26 25 27 27 28 30 27 26 28 29 29 27 30 28 30 30 34 33 36 37 30 33 36 30 33 31 30 25 22 20 19 21 23 22 22
48 50 49 44 41 39 38 36 35 34 32 30 28 30 31 30 32 32 34 36 31 30 30 30 32 38 40 37 38 33 39 37 37 39 37 34 29 27 24 23 26 27 26
46 47 47 44 44 43 39 34 33 33 31 35 34 33 33 33 32 30 33 35 37 38 37 36 39 39 41 43 44 41 41 44 39 41 42 38 36 33 32 26 28 30 31
37 35 35 35 35 34 34 33 33 34 35 35 37 40 42 39 38 37 38 37 39 41 40 41 43 47 50 45 46 44 43 42 42 42 43 42 42 41 38 35 32 34 33
34 34 36 37 37 40 37 35 35 36 34 36 38 35 37 41 45 45 44 44 43 45 45 46 43 50 56 55 50 43 40 46 50 49 49 43 41 41 42 40 37 36 37
28 33 36 38 42 40 39 40 42 42 43 44 44 45 41 42 45 46 49 47 49 46 48 48 52 47 47 52 55 51 50 44 45 47 46 40 43 42 39 43 43 39 38
37 39 41 42 45 44 45 44 49 51 51 51 50 52 52 50 48 49 53 53 50 51 48 53 56 53 50 46 49 50 50 55 58 60 59 57 48 45 41 39 41 40 39
44 43 44 51 52 47 48 51 57 60 61 60 60 60 61 61 57 53 52 58 55 56 52 51 51 57 54 50 51 52 58 61 62 62 58 60 60 55 49 47 43 37 36
43 46 45 47 49 51 56 62 68 72 75 76 74 73 70 66 60 54 51 51 56 60 55 56 53 55 50 48 51 58 61 63 64 64 64 63 64 60 58 57 52 48 46
Wind_Direction_500mb
189 165 139 161 156 174 192 160 156 199 201 205 200 198 205 194 195 180 178 179 185 197 217 224 226 234 234 239 244 247 249 251 253 254 252 254 253 250 246 245 243 243 247
217 145 121 192 194 221 166 159 142 162 191 190 209 214 201 194 207 199 196 202 202 215 228 228 229 234 237 240 244 249 254 255 257 258 255 256 254 246 246 243 243 243 242
210 286 308 307 287 189 61 128 142 142 161 193 207 213 198 210 204 201 203 207 216 225 250 242 235 240 239 241 244 250 256 258 258 259 260 261 254 250 248 247 247 242 241
205 265 289 295 244 257 309 179 158 204 210 198 193 188 193 202 204 210 209 204 220 238 253 252 250 234 234 232 238 244 253 262 267 264 261 259 256 251 248 245 243 242 241
225 245 270 317 171 153 72 104 184 176 160 175 189 193 207 205 210 210 198 211 226 234 245 255 258 229 221 226 236 244 260 270 277 276 268 260 255 251 249 247 244 241 241
212 201 224 211 200 205 237 116 133 157 187 212 208 199 199 205 206 210 221 232 236 243 250 239 251 232 224 233 238 240 266 274 285 292 288 268 258 252 246 246 242 240 239
212 210 219 198 210 203 281 208 107 36 149 175 193 186 202 218 207 209 220 230 231 229 239 249 238 232 221 230 233 255 265 294 306 306 293 271 254 250 248 247 242 238 239
190 201 198 213 189 232 277 281 315 267 261 252 188 193 203 206 219 217 227 239 241 234 238 243 229 228 222 226 256 264 284 298 314 312 302 271 257 253 251 246 241 236 236
208 203 220 230 255 312 268 286 305 311 278 228 203 187 194 210 204 212 221 226 224 223 230 231 229 226 232 232 246 266 278 302 302 310 304 282 260 254 253 243 239 237 236
225 232 242 248 252 283 292 284 278 293 266 264 222 216 219 200 185 196 217 225 221 223 224 221 227 227 228 229 241 256 268 287 301 303 298 274 271 260 247 245 239 234 231
230 233 244 249 253 254 280 275 273 295 279 255 276 158 193 223 206 202 202 221 223 222 228 228 237 236 235 234 240 256 264 279 291 298 298 283 271 263 252 240 245 238 226
234 239 249 253 250 256 268 273 286 280 279 255 229 260 276 163 111 212 209 211 219 234 234 232 234 248 231 236 244 250 259 273 284 293 289 280 262 257 227 237 250 244 225
235 243 255 251 262 260 260 272 277 273 269 251 230 248 251 243 265 278 251 252 228 231 235 234 239 235 227 242 246 245 264 262 272 284 279 278 261 251 241 228 242 228 209
233 244 240 238 254 262 255 276 268 260 269 264 263 255 248 259 255 252 292 274 221 248 246 240 235 234 237 242 252 246 256 264 258 281 262 264 265 252 247 238 221 215 218
237 227 232 245 247 259 255 268 279 263 265 270 264 271 271 264 272 231 286 261 254 251 271 242 234 240 240 244 245 245 252 247 245 258 255 252 257 256 253 240 230 226 215
228 228 241 248 237 253 270 270 271 271 268 266 264 262 278 266 270 260 259 275 265 258 262 271 247 251 249 249 253 244 250 236 233 237 242 251 254 253 251 252 242 227 223
229 240 247 249 265 274 277 273 271 272 267 268 273 267 263 259 264 265 264 255 261 253 264 271 254 243 244 236 260 249 245 233 235 230 239 252 262 260 258 256 248 240 232
240 246 255 257 259 270 276 273 276 285 275 274 272 268 263 266 268 259 258 262 252 252 266 271 254 246 255 239 245 238 243 235 238 241 241 250 259 266 268 259 245 238 234
245 251 255 257 262 270 277 280 279 278 273 271 273 267 268 267 264 264 262 257 254 256 260 263 254 260 245 245 233 243 234 234 238 247 249 251 257 265 269 265 242 239 237
247 248 250 257 265 271 269 270 271 273 272 264 264 266 268 269 267 264 264 263 255 252 256 260 260 250 246 250 241 248 241 238 241 248 255 256 258 260 262 263 246 241 240
241 243 245 250 255 260 262 266 269 270 272 270 262 258 258 262 265 265 265 262 256 249 248 252 257 247 247 246 243 251 244 247 250 256 258 255 256 253 253 258 254 244 242
245 252 255 261 262 266 271 276 278 277 277 276 271 266 264 263 260 260 261 258 255 251 252 251 253 253 251 253 241 247 239 244 242 251 258 261 257 256 249 250 251 249 247
263 268 268 268 269 271 273 278 275 275 276 276 277 279 275 270 262 260 257 258 254 252 251 255 251 249 254 252 253 245 242 246 252 263 257 259 257 261 259 253 250 250 247
265 271 275 276 278 276 276 272 271 271 270 272 274 274 276 275 272 269 264 258 254 253 255 254 251 250 256 260 256 259 260 257 260 261 258 253 259 260 258 258 259 250 250
260 263 269 270 272 275 274 277 278 279 277 273 270 270 271 272 274 269 265 261 257 253 252 254 252 251 253 256 256 250 247 247 250 252 252 250 255 255 252 254 255 259 247
255 258 262 267 271 271 273 276 278 278 279 278 275 273 271 270 267 264 261 258 256 256 253 249 252 254 254 255 253 251 252 252 255 256 255 246 253 249 249 248 250 249 247
Wind_Speed_850mb
6 7 6 6 7 10 11 9 7 11 14 13 24 29 28 22 26 20 18 15 13 12 15 20 23 26 28 27 27 28 28 30 30 31 30 31 32 32 30 29 28 27 26
8 4 5 6 5 2 4 9 9 12 13 17 24 30 36 30 28 24 22 20 12 13 14 19 23 27 28 27 27 28 27 28 32 35 35 33 30 33 31 31 31 29 27
4 3 3 4 6 2 3 10 8 6 10 17 17 27 42 26 32 29 24 22 16 10 9 11 16 22 24 24 24 25 26 28 29 30 34 37 36 34 34 35 32 30 29
8 4 6 11 8 7 0 6 6 2 9 16 14 24 32 30 25 25 24 22 20 18 12 12 14 17 20 21 20 20 19 21 24 27 31 33 35 36 36 37 36 32 31
12 9 6 7 10 9 4 5 7 8 9 12 17 18 27 36 32 25 25 26 21 20 20 16 16 19 22 20 17 14 14 17 20 23 26 30 32 35 38 37 36 35 35
12 12 6 3 9 6 3 4 8 5 6 7 18 17 23 19 34 34 28 29 33 28 21 23 23 23 22 19 16 14 13 16 17 20 23 26 29 30 32 34 37 34 32
12 11 7 9 7 8 2 1 1 2 4 8 14 22 23 22 25 40 32 22 25 26 22 23 32 23 22 18 17 12 14 13 18 22 25 25 27 29 31 32 32 37 37
14 11 12 9 6 3 3 6 6 6 5 6 14 25 22 22 23 34 38 29 28 29 22 22 26 23 25 17 11 14 16 19 21 25 22 19 24 26 28 32 33 31 32
16 14 10 12 9 8 8 6 7 9 10 7 15 13 14 13 30 33 33 34 29 31 29 26 23 22 24 26 26 20 19 19 23 25 20 16 17 19 21 25 28 32 31
20 16 13 13 12 8 7 11 9 8 7 8 13 17 15 12 13 13 32 36 29 31 30 28 26 26 24 26 28 25 23 25 25 26 20 15 15 17 19 19 21 27 32
22 19 19 16 16 11 11 8 12 17 14 13 6 2 14 14 16 9 20 33 28 33 31 32 33 35 31 24 23 20 24 25 24 24 19 14 14 12 13 14 16 23 28
28 24 24 22 21 19 17 13 12 13 15 14 15 6 3 4 2 14 17 22 27 26 33 33 31 30 35 29 29 23 24 24 25 21 17 13 13 12 13 18 17 17 23
35 30 27 22 23 22 17 18 15 13 19 14 16 14 11 10 11 11 17 20 25 28 28 33 32 28 27 29 31 30 28 29 22 18 14 12 10 10 12 17 18 13 15
23 26 25 22 22 22 20 19 21 16 15 13 12 13 14 13 15 14 10 16 16 23 22 31 33 34 29 28 32 37 35 27 18 15 12 10 9 10 10 12 12 14 17
23 23 23 25 23 15 18 24 21 18 18 16 16 15 16 17 17 23 15 16 18 13 13 27 31 28 33 33 37 36 35 27 20 13 13 10 10 10 10 11 13 16 21
31 29 21 21 20 12 13 18 15 16 20 17 17 18 20 22 21 19 24 18 22 24 20 11 28 32 24 32 36 37 29 30 25 17 14 13 13 13 12 13 14 16 18
34 33 28 29 27 23 19 20 20 20 28 23 26 28 24 22 23 23 26 28 25 22 25 29 24 33 34 25 25 28 32 27 27 24 20 16 15 16 15 17 18 19 19
44 38 33 34 34 34 29 27 26 25 27 27 28 30 27 26 28 29 29 27 30 28 30 30 34 33 36 37 30 33 36 30 33 31 30 25 22 20 19 21 23 22 22
48 50 49 44 41 39 38 36 35 34 32 30 28 30 31 30 32 32 34 36 31 30 30 30 32 38 40 37 38 33 39 37 37 39 37 34 29 27 24 23 26 27 26
46 47 47 44 44 43 39 34 33 33 31 35 34 33 33 33 32 30 33 35 37 38 37 36 39 39 41 43 44 41 41 44 39 41 42 38 36 33 32 26 28 30 31
37 35 35 35 35 34 34 33 33 34 35 35 37 40 42 39 38 37 38 37 39 41 40 41 43 47 50 45 46 44 43 42 42 42 43 42 42 41 38 35 32 34 33
34 34 36 37 37 40 37 35 35 36 34 36 38 35 37 41 45 45 44 44 43 45 45 46 43 50 56 55 50 43 40 46 50 49 49 43 41 41 42 40 37 36 37
28 33 36 38 42 40 39 40 42 42 43 44 44 45 41 42 45 46 49 47 49 46 48 48 52 47 47 52 55 51 50 44 45 47 46 40 43 42 39 43 43 39 38
37 39 41 42 45 44 45 44 49 51 51 51 50 52 52 50 48 49 53 53 50 51 48 53 56 53 50 46 49 50 50 55 58 60 59 57 48 45 41 39 41 40 39
44 43 44 51 52 47 48 51 57 60 61 60 60 60 61 61 57 53 52 58 55 56 52 51 51 57 54 50 51 52 58 61 62 62 58 60 60 55 49 47 43 37 36
43 46 45 47 49 51 56 62 68 72 75 76 74 73 70 66 60 54 51 51 56 60 55 56 53 55 50 48 51 58 61 63 64 64 64 63 64 60 58 57 52 48 46
Wind_Direction_850mb
189 165 139 161 156 174 192 160 156 199 201 205 200 198 205 194 195 180 178 179 185 197 217 224 226 234 234 239 244 247 249 251 253 254 252 254 253 250 246 245 243 243 247
217 145 121 192 194 221 166 159 142 162 191 190 209 214 201 194 207 199 196 202 202 215 228 228 229 234 237 240 244 249 254 255 257 258 255 256 254 246 246 243 243 243 242
210 286 308 307 287 189 61 128 142 142 161 193 207 213 198 210 204 201 203 207 216 225 250 242 235 240 239 241 244 250 256 258 258 259 260 261 254 250 248 247 247 242 241
205 265 289 295 244 257 309 179 158 204 210 198 193 188 193 202 204 210 209 204 220 238 253 252 250 234 234 232 238 244 253 262 267 264 261 259 256 251 248 245 243 242 241
225 245 270 317 171 153 72 104 184 176 160 175 189 193 207 205 210 210 198 211 226 234 245 255 258 229 221 226 236 244 260 270 277 276 268 260 255 251 249 247 244 241 241
212 201 224 211 200 205 237 116 133 157 187 212 208 199 199 205 206 210 221 232 236 243 250 239 251 232 224 233 238 240 266 274 285 292 288 268 258 252 246 246 242 240 239
212 210 219 198 210 203 281 208 107 36 149 175 193 186 202 218 207 209 220 230 231 229 239 249 238 232 221 230 233 255 265 294 306 306 293 271 254 250 248 247 242 238 239
190 201 198 213 189 232 277 281 315 267 261 252 188 193 203 206 219 217 227 239 241 234 238 243 229 228 222 226 256 264 284 298 314 312 302 271 257 253 251 246 241 236 236
208 203 220 230 255 312 268 286 305 311 278 228 203 187 194 210 204 212 221 226 224 223 230 231 229 226 232 232 246 266 278 302 302 310 304 282 260 254 253 243 239 237 236
225 232 242 248 252 283 292 284 278 293 266 264 222 216 219 200 185 196 217 225 221 223 224 221 227 227 228 229 241 256 268 287 301 303 298 274 271 260 247 245 239 234 231
230 233 244 249 253 254 280 275 273 295 279 255 276 158 193 223 206 202 202 221 223 222 228 228 237 236 235 234 240 256 264 279 291 298 298 283 271 263 252 240 245 238 226
234 239 249 253 250 256 268 273 286 280 279 255 229 260 276 163 111 212 209 211 219 234 234 232 234 248 231 236 244 250 259 273 284 293 289 280 262 257 227 237 250 244 225
235 243 255 251 262 260 260 272 277 273 269 251 230 248 251 243 265 278 251 252 228 231 235 234 239 235 227 242 246 245 264 262 272 284 279 278 261 251 241 228 242 228 209
233 244 240 238 254 262 255 276 268 260 269 264 263 255 248 259 255 252 292 274 221 248 246 240 235 234 237 242 252 246 256 264 258 281 262 264 265 252 247 238 221 215 218
237 227 232 245 247 259 255 268 279 263 265 270 264 271 271 264 272 231 286 261 254 251 271 242 234 240 240 244 245 245 252 247 245 258 255 252 257 256 253 240 230 226 215
228 228 241 248 237 253 270 270 271 271 268 266 264 262 278 266 270 260 259 275 265 258 262 271 247 251 249 249 253 244 250 236 233 237 242 251 254 253 251 252 242 227 223
229 240 247 249 265 274 277 273 271 272 267 268 273 267 263 259 264 265 264 255 261 253 264 271 254 243 244 236 260 249 245 233 235 230 239 252 262 260 258 256 248 240 232
240 246 255 257 259 270 276 273 276 285 275 274 272 268 263 266 268 259 258 262 252 252 266 271 254 246 255 239 245 238 243 235 238 241 241 250 259 266 268 259 245 238 234
245 251 255 257 262 270 277 280 279 278 273 271 273 267 268 267 264 264 262 257 254 256 260 263 254 260 245 245 233 243 234 234 238 247 249 251 257 265 269 265 242 239 237
247 248 250 257 265 271 269 270 271 273 272 264 264 266 268 269 267 264 264 263 255 252 256 260 260 250 246 250 241 248 241 238 241 248 255 256 258 260 262 263 246 241 240
241 243 245 250 255 260 262 266 269 270 272 270 262 258 258 262 265 265 265 262 256 249 248 252 257 247 247 246 243 251 244 247 250 256 258 255 256 253 253 258 254 244 242
245 252 255 261 262 266 271 276 278 277 277 276 271 266 264 263 260 260 261 258 255 251 252 251 253 253 251 253 241 247 239 244 242 251 258 261 257 256 249 250 251 249 247
263 268 268 268 269 271 273 278 275 275 276 276 277 279 275 270 262 260 257 258 254 252 251 255 251 249 254 252 253 245 242 246 252 263 257 259 257 261 259 253 250 250 247
265 271 275 276 278 276 276 272 271 271 270 272 274 274 276 275 272 269 264 258 254 253 255 254 251 250 256 260 256 259 260 257 260 261 258 253 259 260 258 258 259 250 250
260 263 269 270 272 275 274 277 278 279 277 273 270 270 271 272 274 269 265 261 257 253 252 254 252 251 253 256 256 250 247 247 250 252 252 250 255 255 252 254 255 259 247
255 258 262 267 271 271 273 276 278 278 279 278 275 273 271 270 267 264 261 258 256 256 253 249 252 254 254 255 253 251 252 252 255 256 255 246 253 249 249 248 250 249 247